Change the Weather History Date:

Sunday, November 11, 2012

  Actual Average Record
Temperature  
Mean Temperature 82 °F -  
Max Temperature 86 °F 85 °F 93 °F (1998)
Min Temperature 77 °F 76 °F 75 °F (2000)
Cooling Degree Days 16    
Growing Degree Days 32 (Base 50)    
Moisture  
Dew Point 74 °F    
Average Humidity 81    
Maximum Humidity 94    
Minimum Humidity 62    
Precipitation  
Precipitation 0.31 in 0.13 in - ()
Sea Level Pressure  
Sea Level Pressure 29.85 in    
Wind  
Wind Speed 8 mph ()    
Max Wind Speed 14 mph    
Max Gust Speed -    
Visibility 6.8 miles    
Events Rain    
Averages and records for this station are not official NWS values.
T = Trace of Precipitation, MM = Missing Value Source: Averaged Metar Reports

Daily Weather History Graph

Daily Weather History Graph

Search for Another Location

Airport or City:

Trip Planner

Search our weather history database for the weather conditions in past years. The results will help you decide how hot, cold, wet, or windy it might be!

Date:

Astronomy

Nov. 11, 2012 Rise Set
Actual Time 6:31 AM AST 6:07 PM AST
Civil Twilight 6:09 AM AST 6:29 PM AST
Nautical Twilight 5:44 AM AST 6:55 PM AST
Astronomical Twilight 5:18 AM AST 7:20 PM AST
Moon 4:04 AM AST (11/11) 4:12 PM AST (11/11)
Length of Visible Light 12h 20m
Length of Day
11h 35m
Waning Crescent, 7% of the Moon is Illuminated
Nov 11
Waning Crescent
Nov 13
New
Nov 20
First Quarter
Nov 28
Full
Dec 6
Last Quarter

Hourly Weather History & Observations

Time (AST) Temp. Heat Index Dew Point Humidity Pressure Visibility Wind Dir Wind Speed Gust Speed Precip Events Conditions
12:00 AM 80.6 °F 84.6 °F 71.6 °F 74% 29.89 in 6.2 mi East 10.4 mph - N/A   Partly Cloudy
1:00 AM 78.8 °F - 71.6 °F 78% 29.86 in 6.2 mi ESE 4.6 mph - N/A   Partly Cloudy
2:00 AM 80 °F - 73 °F 74% 29.85 in 25 mi East 6.9 mph - -   Scattered Clouds
2:00 AM 78.8 °F - 73.4 °F 83% 29.83 in 6.2 mi East 8.1 mph - N/A   Partly Cloudy
3:00 AM 78.8 °F - 73.4 °F 83% 29.83 in 6.2 mi East 8.1 mph - N/A   Scattered Clouds
4:00 AM 78.8 °F - 73.4 °F 83% 29.80 in 6.2 mi East 9.2 mph - N/A   Scattered Clouds
5:00 AM 80 °F - 73 °F 73% 29.83 in 25 mi East 8.1 mph - -   Partly Cloudy
5:00 AM 78.8 °F - 73.4 °F 83% 29.83 in 6.2 mi East 10.4 mph - N/A   Scattered Clouds
6:00 AM 78.8 °F - 71.6 °F 78% 29.83 in 6.2 mi East 9.2 mph - N/A   Partly Cloudy
7:00 AM 80.6 °F 85.4 °F 73.4 °F 79% 29.86 in 6.2 mi East 9.2 mph - N/A   Partly Cloudy
8:00 AM 81 °F - 74 °F 74% 29.89 in 25 mi East 9.2 mph - -   Partly Cloudy
8:00 AM 80.6 °F 85.4 °F 73.4 °F 79% 29.89 in 6.2 mi East 10.4 mph - N/A   Scattered Clouds
9:00 AM 84.2 °F 92.3 °F 75.2 °F 74% 29.89 in 6.2 mi East 10.4 mph - N/A   Scattered Clouds
10:00 AM 86.0 °F 95.1 °F 75.2 °F 70% 29.89 in 6.2 mi East 9.2 mph - N/A   Partly Cloudy
11:00 AM 87 °F - 76 °F 62% 29.90 in 31 mi East 11.5 mph - -   Scattered Clouds
11:00 AM 86.0 °F 95.1 °F 75.2 °F 70% 29.89 in 6.2 mi East 10.4 mph - N/A   Partly Cloudy
12:00 PM 86.0 °F 95.1 °F 75.2 °F 70% 29.86 in 6.2 mi East 9.2 mph - N/A   Partly Cloudy
1:00 PM 80.6 °F 87.1 °F 77.0 °F 89% 29.86 in 6.2 mi ENE 10.4 mph - N/A   Scattered Clouds
2:00 PM 79 °F - 76 °F 90% 29.83 in 22 mi ENE 6.9 mph - - Rain Heavy Rain Showers
2:00 PM 77.0 °F - 75.2 °F 94% 29.83 in 6.2 mi ENE 6.9 mph - N/A Rain Rain Showers
3:00 PM 77.0 °F - 75.2 °F 94% 29.80 in 2.5 mi East 13.8 mph - N/A Rain Rain Showers
4:00 PM 80.6 °F 87.1 °F 77.0 °F 89% 29.80 in 6.2 mi East 9.2 mph - N/A   Scattered Clouds
5:00 PM 81 °F - 75 °F 78% 29.80 in 12 mi ESE 9.2 mph - -   Partly Cloudy
5:00 PM 80.6 °F 86.2 °F 75.2 °F 84% 29.80 in 6.2 mi ESE 6.9 mph - N/A   Scattered Clouds
6:00 PM 78.8 °F - 75.2 °F 89% 29.80 in 6.2 mi East 5.8 mph - N/A Rain Light Rain Showers
7:00 PM 78.8 °F - 75.2 °F 89% 29.83 in 6.2 mi East 8.1 mph - N/A   Scattered Clouds
8:00 PM 80 °F - 75 °F 80% 29.85 in 19 mi East 10.4 mph - -   Partly Cloudy
8:00 PM 80.6 °F 86.2 °F 75.2 °F 84% 29.83 in 6.2 mi East 10.4 mph - N/A   Partly Cloudy
9:00 PM 80.6 °F 86.2 °F 75.2 °F 84% 29.86 in 6.2 mi East 10.4 mph - N/A   Partly Cloudy
10:00 PM 80.6 °F 86.2 °F 75.2 °F 84% 29.89 in 6.2 mi East 11.5 mph - N/A   Partly Cloudy
11:00 PM 78.8 °F - 73.4 °F 83% 29.89 in 6.2 mi ESE 10.4 mph - N/A   Partly Cloudy